Temperature
16 16 17 17 14 12 14 15 17 18 18 19 19 19 17 17 18 18 17 17 17 17 16 16 16 16 16 16 16 16 15 15 15 15 15 15 15 15 15 14 14 14 14 14 14 14 14 14 14
15 16 17 16 13 13 14 15 16 17 18 19 19 18 17 16 17 17 17 17 17 17 16 16 16 15 15 15 15 15 15 15 15 15 15 15 15 15 15 14 14 14 14 14 14 14 14 14 14
15 16 16 12 12 14 15 16 16 17 19 19 18 18 17 17 17 17 17 17 16 16 16 16 16 15 15 15 15 15 15 15 15 15 15 15 15 15 14 14 14 14 14 14 14 14 14 14 13
15 15 15 12 13 14 15 16 16 17 18 19 18 16 16 16 17 17 17 17 16 16 16 16 15 15 15 15 15 15 15 15 15 15 15 15 15 14 14 14 14 14 14 14 14 14 14 13 13
15 14 12 12 13 14 15 16 17 16 17 17 17 15 15 16 16 16 17 16 16 16 16 15 15 15 15 15 15 15 15 15 15 14 14 14 14 14 14 14 14 14 14 14 14 14 13 13 13
14 12 11 12 13 14 15 17 17 16 16 17 16 15 15 15 16 16 16 16 16 16 15 15 15 15 15 15 15 15 15 14 14 14 14 14 14 14 14 14 14 14 14 14 14 14 13 13 13
13 10 11 12 13 14 15 16 16 15 15 16 16 14 14 15 15 15 15 15 15 15 15 15 15 15 15 15 15 14 14 14 14 14 14 14 14 14 14 14 14 14 14 14 14 14 13 13 13
13 10 12 12 13 14 14 15 15 15 15 16 16 14 14 15 15 14 14 15 14 14 14 14 14 14 14 14 14 14 14 14 14 14 14 14 14 14 14 14 14 14 14 13 13 13 13 13 13
13 10 10 12 13 13 14 14 15 15 15 15 15 15 15 15 14 14 14 14 14 14 14 14 14 14 14 14 14 14 14 14 14 14 14 13 13 13 13 13 13 13 13 13 13 13 13 13 13
12 9 11 12 12 12 13 13 13 14 13 13 14 14 14 14 14 14 14 14 14 13 13 14 14 14 14 13 13 13 13 13 13 13 13 13 13 13 13 13 13 13 13 13 13 13 13 13 13
10 10 11 11 12 12 12 12 13 13 12 13 13 13 14 14 14 14 14 14 14 14 13 13 13 13 13 13 13 13 13 13 13 13 13 13 13 13 13 13 13 13 13 13 13 13 12 12 12
10 10 11 11 12 12 12 12 12 12 13 14 13 13 13 13 13 13 13 13 13 13 13 13 13 13 13 13 13 13 13 13 13 13 13 13 13 13 13 13 13 13 13 13 13 12 12 12 12
10 10 11 11 11 11 11 11 11 11 13 13 13 13 13 13 13 13 13 13 13 13 13 13 13 13 13 13 13 13 13 13 13 13 13 13 13 13 13 12 12 12 12 12 12 12 12 12 12
9 9 10 10 11 11 10 10 10 11 12 12 12 12 12 12 12 12 12 12 12 12 12 12 12 12 12 13 13 13 13 13 12 12 12 12 12 12 12 12 12 12 12 12 12 12 12 11 11
10 9 9 9 10 10 10 9 9 11 11 11 11 11 12 12 12 12 12 12 12 12 12 12 12 12 12 12 12 12 12 12 12 12 12 12 12 12 12 12 12 12 11 11 11 11 11 11 11
8 8 8 9 9 9 9 8 9 11 11 10 11 11 11 11 11 11 11 11 11 11 11 11 11 11 11 12 12 12 12 12 12 12 12 12 12 12 11 11 11 11 11 11 11 11 11 11 11
6 6 7 8 8 8 8 8 9 10 10 10 10 10 11 11 11 11 11 11 11 11 11 11 11 11 11 11 11 11 11 11 11 11 11 11 11 11 11 11 11 11 11 10 10 10 10 11 10
6 6 7 7 8 8 7 7 8 9 9 9 9 10 10 10 10 10 10 11 11 11 11 11 11 11 11 11 11 11 11 11 11 11 11 11 11 11 11 11 10 10 10 10 10 10 10 10 10
7 6 6 7 7 7 7 7 7 8 8 8 8 9 9 9 10 10 10 10 10 10 10 10 10 10 10 10 10 10 10 10 10 11 10 11 10 10 10 10 10 10 10 10 10 10 10 10 9
6 6 6 6 7 7 6 6 6 7 7 8 8 8 9 9 9 9 9 9 9 10 10 10 10 10 10 10 10 10 10 10 10 10 10 10 10 10 10 10 10 10 10 10 10 10 9 9 9
6 5 5 6 6 6 5 5 6 6 7 7 7 8 8 8 8 8 9 9 9 9 9 9 9 9 9 9 9 9 9 9 9 9 9 9 9 9 9 9 9 9 9 9 9 9 9 9 9
5 6 6 5 4 4 5 4 5 5 5 5 6 6 7 7 7 8 8 8 8 8 8 8 8 8 8 8 8 9 8 8 9 9 9 9 9 9 9 9 9 9 9 9 9 9 9 9 8
5 5 5 5 4 3 3 3 4 4 5 5 5 5 6 6 6 7 7 7 8 8 8 8 8 8 8 8 8 8 8 8 8 8 8 8 8 8 9 9 9 9 9 9 8 8 8 8 8
5 4 3 3 2 3 3 3 4 3 4 5 4 5 5 5 6 6 6 7 7 7 7 7 7 7 7 7 7 7 7 8 7 7 8 8 8 8 8 8 8 8 8 8 8 8 8 8 8
4 3 2 2 2 2 3 3 3 4 4 4 4 4 5 5 5 5 6 6 6 6 6 6 6 7 7 7 7 7 7 7 7 7 7 7 7 7 8 8 8 8 8 8 8 8 8 8 8
3 3 2 3 2 2 3 3 3 4 4 4 4 4 4 4 4 5 5 5 5 5 5 5 6 6 6 6 6 6 6 6 6 6 6 6 7 7 7 7 7 7 8 8 7 7 7 7 7
3 2 3 2 1 2 2 2 3 4 3 3 3 3 3 3 3 4 4 4 4 4 5 5 5 5 5 5 5 6 6 6 6 6 6 6 6 6 7 7 7 7 7 7 7 7 7 7 7
3 2 1 1 2 2 2 2 3 3 3 3 2 2 2 3 3 3 3 3 3 4 4 4 4 4 4 5 5 5 5 5 5 5 6 6 6 6 6 6 6 6 6 6 7 7 7 6 6
2 2 1 1 1 1 2 3 4 3 3 2 2 2 2 2 2 2 2 3 3 3 3 3 4 4 4 4 4 4 4 5 5 5 5 5 5 5 5 5 6 6 6 6 6 6 6 6 6
2 2 1 1 1 0 0 2 3 2 2 2 1 2 2 2 2 2 2 2 2 2 3 3 3 3 3 3 3 3 4 4 4 4 4 4 4 5 5 5 5 5 5 5 5 5 5 5 5
Wind_Speed
11 9 2 4 5 3 4 5 3 1 1 1 1 5 7 4 3 4 3 7 10 10 11 13 13 13 12 13 13 13 14 14 13 13 13 13 13 13 12 12 12 12 12 13 12 13 12 13 13
7 3 4 5 4 3 5 5 5 5 4 1 3 3 4 2 2 5 4 8 12 12 11 12 13 13 13 13 13 13 13 14 14 13 13 13 13 13 12 12 12 12 12 12 12 12 12 12 12
5 2 4 4 4 7 6 4 6 4 3 0 2 3 3 3 3 4 5 11 12 11 11 12 13 13 12 12 13 13 13 13 13 13 13 13 13 12 12 12 12 12 12 12 11 11 10 10 11
3 4 4 3 7 7 6 4 3 2 3 2 2 3 2 1 2 4 8 12 12 9 11 12 14 12 12 12 12 13 13 13 13 13 13 12 12 12 12 12 12 12 11 11 11 10 10 10 10
4 4 3 2 7 5 5 5 3 2 1 1 2 2 1 5 2 6 10 12 12 9 10 12 14 13 12 12 11 12 12 12 13 13 12 12 12 12 12 12 11 11 11 11 10 10 9 9 9
4 4 3 6 7 5 4 4 3 2 2 1 2 2 1 3 3 5 8 10 11 10 9 11 13 13 12 11 11 11 12 13 13 12 12 12 12 12 12 12 12 11 11 10 10 9 8 8 8
4 4 5 6 5 5 4 2 2 2 1 2 2 3 1 2 1 4 7 8 8 9 8 8 10 11 11 11 11 11 11 13 13 12 12 12 12 12 11 11 11 11 10 10 9 8 7 7 7
4 4 3 4 5 6 2 1 1 2 2 2 2 5 4 4 2 5 6 7 7 6 6 6 8 9 8 8 9 10 11 12 13 12 12 11 11 12 12 11 11 10 10 9 8 7 7 7 6
3 3 5 5 5 4 1 1 2 1 1 2 1 2 3 4 4 6 6 5 5 6 5 6 6 7 7 8 8 9 10 11 12 12 12 11 10 10 10 11 10 10 9 9 8 7 7 6 5
4 4 7 3 3 2 1 1 2 1 1 1 2 2 3 5 6 5 5 6 6 6 6 5 6 6 7 7 6 7 7 8 10 10 10 10 9 9 9 11 11 10 9 8 8 7 6 4 3
4 6 4 2 2 1 2 3 3 1 3 4 3 2 2 3 4 4 4 4 6 6 6 6 7 7 7 5 5 5 5 6 8 9 10 9 8 8 8 8 8 8 8 7 6 5 4 3 2
3 3 3 2 2 1 2 3 3 3 6 4 3 3 3 3 4 5 5 4 3 5 6 5 6 6 7 6 5 5 5 5 5 8 10 9 6 6 6 6 7 7 6 6 5 4 4 3 2
3 2 2 2 2 2 2 3 4 6 6 2 1 2 3 3 3 3 3 4 3 5 5 5 5 6 6 6 5 5 5 5 6 7 10 10 7 6 6 6 6 7 7 6 5 5 4 3 2
2 2 3 4 4 3 3 5 3 7 3 2 2 3 4 5 5 3 3 3 3 4 4 4 5 5 5 5 5 5 6 6 7 7 9 11 9 8 7 6 6 6 7 7 6 5 4 3 2
1 2 5 4 3 2 1 6 7 7 2 3 4 4 5 5 5 6 6 5 5 4 3 4 4 5 5 5 6 5 6 7 6 7 9 11 11 10 8 6 6 7 8 7 6 5 4 2 2
2 1 3 4 2 1 2 8 7 4 3 5 5 5 5 5 5 5 5 5 4 3 3 4 3 4 4 4 4 4 6 6 6 7 8 10 12 12 9 7 6 8 8 6 5 4 3 3 2
1 2 5 4 2 2 4 9 7 4 3 5 6 5 5 4 4 4 4 4 4 4 4 4 3 3 4 4 3 3 4 5 6 7 7 9 11 12 10 7 7 9 7 5 5 3 3 3 3
4 4 4 5 3 2 6 10 10 6 5 7 6 5 5 5 5 4 3 3 3 3 4 4 4 3 3 3 2 2 2 4 5 6 7 9 10 11 10 7 8 9 6 5 5 5 3 3 3
3 4 6 6 3 3 8 12 12 8 5 6 6 6 5 5 5 3 2 2 2 2 3 4 4 4 3 3 3 3 4 4 4 6 8 9 10 11 9 7 8 8 7 7 7 5 4 2 2
4 5 7 6 4 4 7 12 10 7 7 7 7 6 6 4 3 2 1 0 0 2 3 4 4 4 4 4 4 4 4 4 4 4 6 9 10 10 10 8 7 8 6 7 7 5 4 3 3
5 6 6 6 5 3 4 8 6 5 3 3 3 4 3 3 2 1 1 0 0 1 2 3 4 4 4 4 3 2 1 1 3 3 4 6 8 10 10 10 8 8 7 8 8 8 7 4 4
6 5 5 4 2 4 1 5 7 4 3 2 2 1 1 1 0 0 1 2 2 3 2 2 3 3 3 3 3 5 4 4 5 4 4 5 7 8 8 9 9 8 7 7 8 7 5 6 5
4 2 2 2 2 3 3 4 8 3 3 4 3 2 2 2 1 2 2 2 3 2 2 2 2 3 3 3 4 5 4 4 3 3 4 5 6 7 8 8 8 8 7 7 7 7 6 6 6
1 2 3 2 2 4 6 6 6 3 5 4 3 3 2 2 2 2 3 2 3 3 2 2 2 3 4 4 4 5 5 4 4 4 5 5 5 6 7 8 7 7 6 7 7 7 8 7 7
2 3 3 3 2 6 3 4 7 5 3 3 3 3 2 1 2 3 4 4 3 3 4 3 3 4 4 4 4 5 6 6 6 6 6 5 5 5 7 7 7 7 7 7 7 7 7 8 8
2 4 5 4 5 5 2 6 6 3 2 1 1 1 1 2 3 3 4 3 4 4 4 3 4 5 4 4 4 4 4 4 4 5 5 5 5 6 6 7 7 7 7 7 7 6 7 7 8
3 3 4 3 2 4 5 5 6 1 1 2 2 2 2 2 3 4 4 4 4 4 4 4 4 4 4 4 4 4 4 4 4 4 4 4 3 4 6 6 6 7 7 7 7 6 6 6 7
3 4 3 3 3 5 6 5 5 4 3 2 2 2 3 3 3 4 4 4 4 4 4 3 3 4 4 3 3 3 3 4 4 4 4 4 4 4 4 5 5 6 6 6 6 5 6 7 7
2 2 3 3 3 4 4 6 4 4 2 2 3 3 3 4 4 4 4 4 4 4 3 3 3 3 3 3 3 3 3 4 3 3 4 4 4 4 4 5 6 6 6 6 6 6 6 8 7
4 5 5 4 4 4 4 7 4 2 1 1 3 4 4 4 4 4 4 4 4 4 4 3 3 3 3 3 3 3 3 3 2 3 3 3 3 3 4 4 5 5 6 6 7 7 7 8 9
Wind_Direction
332 339 39 56 62 60 237 248 237 256 273 267 99 105 117 120 143 169 161 148 140 149 155 155 152 148 143 140 135 132 135 134 132 131 129 128 126 123 120 118 116 116 116 114 112 108 106 104 102
338 356 52 65 110 182 252 246 230 236 221 189 48 81 87 92 107 119 137 149 144 147 150 153 151 150 147 142 139 136 135 135 135 135 132 131 128 125 123 121 118 118 118 118 116 113 109 107 105
341 42 82 92 157 194 220 228 217 246 270 225 70 52 106 139 147 157 167 148 142 145 148 154 151 149 149 144 143 142 139 136 137 137 136 134 130 127 126 125 121 120 119 119 118 117 116 112 110
48 53 64 112 217 223 217 227 232 269 330 12 111 62 64 3 172 169 147 143 141 144 146 152 151 151 149 148 145 145 144 142 140 139 140 137 134 132 130 127 124 124 124 122 120 119 119 117 113
62 85 106 222 237 242 242 244 240 243 255 331 95 116 12 327 84 128 138 144 144 143 144 150 150 152 151 151 150 150 148 147 145 142 143 141 139 137 133 131 130 131 130 127 126 122 122 124 119
67 87 146 221 235 243 252 253 244 237 254 313 104 129 238 308 101 129 135 144 143 142 143 149 150 152 154 153 154 153 154 152 149 147 143 143 142 139 137 138 136 135 135 133 130 128 122 126 122
122 132 188 212 229 242 248 250 193 207 232 265 147 129 194 290 107 123 128 130 133 135 138 142 146 150 152 153 154 157 157 156 152 149 147 144 144 144 142 139 140 140 137 135 132 132 132 128 121
139 131 199 219 215 234 253 242 224 196 225 306 119 150 193 221 149 105 117 119 125 129 140 144 143 144 148 153 154 157 156 156 154 150 148 147 146 148 145 142 143 142 140 139 137 136 138 131 120
110 113 212 219 210 229 302 338 320 293 93 6 53 174 193 146 117 106 112 118 129 141 153 151 148 146 150 155 158 155 157 159 157 154 151 148 147 149 149 147 146 146 144 142 139 138 134 126 120
116 184 220 214 209 229 306 313 300 0 7 343 352 3 81 118 120 125 145 155 156 165 174 165 159 156 152 157 156 156 159 160 161 159 157 153 150 151 152 153 151 150 148 146 145 141 132 121 111
161 198 217 233 267 263 307 316 318 168 241 220 210 196 155 139 138 155 174 180 179 177 178 178 172 163 158 157 153 155 159 160 165 163 162 157 151 153 152 152 156 156 155 150 149 140 134 133 126
178 233 227 234 267 252 264 289 303 245 233 231 209 177 162 166 176 181 191 200 185 174 185 184 176 169 165 160 162 164 166 170 172 176 169 161 158 158 159 159 160 159 159 152 149 147 150 156 158
222 262 280 268 286 259 263 260 261 259 253 247 158 150 176 200 214 211 200 201 194 190 191 188 176 173 169 165 170 175 181 183 184 182 179 172 168 169 166 168 168 169 164 160 158 159 160 166 169
214 261 285 280 280 286 268 275 260 257 243 229 204 210 212 214 219 225 225 215 206 203 199 186 178 177 170 175 179 184 187 185 185 187 186 179 176 173 171 173 172 174 173 171 169 168 166 172 163
355 331 314 277 243 261 305 286 243 248 231 249 249 236 231 230 225 225 219 212 207 209 205 186 181 174 173 182 187 185 190 186 189 194 192 185 180 178 175 178 181 182 179 172 165 162 159 164 169
32 11 283 278 206 197 153 260 261 252 214 247 256 252 244 242 233 230 215 205 203 203 200 190 184 181 184 187 191 189 192 190 193 196 197 194 187 182 177 181 187 183 176 172 170 169 170 183 186
25 232 250 282 229 181 197 253 268 279 240 247 254 255 248 248 253 246 225 202 196 200 198 188 185 190 199 199 193 190 196 198 198 197 199 200 194 186 180 184 186 179 174 176 182 181 177 182 188
216 223 245 247 257 232 243 257 271 268 242 246 255 254 249 248 253 249 232 210 191 197 195 190 192 196 198 197 192 193 208 212 202 201 205 201 195 191 184 183 184 178 178 183 186 182 186 183 179
204 229 256 260 275 271 256 267 273 268 254 249 249 250 251 250 258 250 237 231 203 195 196 197 196 204 194 190 199 200 212 227 220 208 208 205 197 192 187 187 186 186 190 191 187 181 181 182 151
238 254 267 287 298 272 274 277 274 261 246 237 235 240 245 249 282 294 286 273 215 214 209 210 206 201 200 205 206 209 209 216 224 220 211 209 201 195 192 190 193 193 194 192 191 179 178 191 171
244 232 246 267 316 314 309 294 274 271 263 259 246 246 245 222 230 259 349 351 331 260 233 230 226 216 211 212 205 212 219 233 226 231 225 218 207 200 195 194 192 195 195 199 198 191 185 193 203
250 244 244 258 288 284 255 282 279 269 300 295 286 291 287 289 306 299 330 319 289 260 260 261 243 230 222 207 199 198 212 226 234 226 227 227 210 203 198 195 193 195 198 204 205 198 194 183 198
228 268 255 244 223 292 245 227 282 296 271 265 259 261 271 277 276 297 288 280 288 279 266 268 269 254 237 220 211 207 226 234 241 233 228 225 218 208 201 197 192 197 201 203 204 203 198 195 197
215 33 29 50 90 266 232 201 275 253 246 261 254 263 277 294 320 318 315 316 323 329 312 289 282 269 252 235 224 213 221 232 233 236 230 226 222 217 208 200 195 198 203 205 205 207 205 204 202
74 81 25 353 310 250 230 215 250 254 246 236 245 259 280 320 327 323 324 322 320 326 321 307 288 280 267 247 237 229 226 222 222 227 225 223 224 225 213 205 203 206 208 206 205 208 212 208 204
197 149 165 210 239 278 266 235 250 257 256 236 210 243 340 343 340 332 320 311 308 303 300 297 290 285 279 261 254 249 237 230 234 231 225 225 225 224 216 211 207 208 208 208 206 211 216 213 211
157 196 180 166 243 272 265 273 291 234 7 22 16 8 342 329 328 322 318 310 301 295 282 272 274 282 278 265 261 253 242 233 238 237 225 226 233 230 215 215 213 211 208 209 208 213 215 214 214
158 156 114 150 205 260 277 263 251 259 297 316 312 303 306 315 317 314 313 306 300 290 285 274 259 269 273 257 248 256 254 248 246 231 225 229 229 222 219 219 216 216 215 215 214 215 216 215 218
159 161 160 168 185 199 263 268 234 219 230 272 279 280 291 299 301 301 304 305 303 303 302 289 281 280 275 264 257 262 265 264 250 233 233 230 227 221 222 226 220 218 219 217 212 214 213 215 217
196 191 168 183 231 209 226 268 276 214 239 308 322 315 304 299 297 296 302 309 312 312 317 308 294 278 269 261 257 257 262 264 251 249 243 230 226 222 225 226 222 222 222 219 213 215 215 214 215
Height
1502 1502 1504 1506 1510 1520 1519 1509 1502 1499 1497 1496 1495 1494 1496 1500 1504 1509 1506 1505 1507 1508 1511 1512 1514 1516 1517 1519 1520 1521 1522 1524 1525 1526 1527 1528 1529 1530 1530 1531 1532 1532 1533 1533 1534 1534 1534 1535 1535
1501 1502 1505 1506 1515 1524 1517 1505 1501 1497 1495 1495 1495 1496 1497 1499 1501 1502 1503 1505 1507 1508 1510 1512 1514 1516 1517 1518 1520 1521 1522 1523 1525 1526 1527 1528 1529 1530 1531 1531 1532 1533 1533 1534 1534 1535 1535 1535 1536
1501 1502 1505 1508 1515 1517 1509 1500 1497 1495 1494 1495 1496 1496 1498 1500 1500 1501 1503 1504 1506 1508 1510 1511 1513 1515 1516 1518 1519 1520 1522 1523 1524 1526 1527 1528 1529 1530 1531 1531 1532 1533 1534 1534 1535 1535 1536 1536 1536
1501 1503 1505 1511 1511 1505 1500 1497 1495 1495 1494 1494 1495 1497 1499 1501 1501 1501 1502 1504 1505 1507 1509 1511 1512 1514 1516 1517 1519 1520 1521 1522 1524 1525 1526 1528 1529 1530 1530 1531 1532 1533 1534 1534 1535 1535 1536 1536 1537
1500 1502 1508 1512 1507 1501 1497 1495 1495 1494 1494 1494 1495 1497 1499 1500 1500 1501 1502 1503 1505 1506 1508 1510 1512 1513 1515 1517 1518 1519 1521 1522 1523 1525 1526 1527 1528 1529 1530 1531 1532 1533 1534 1534 1535 1536 1536 1537 1537
1500 1502 1512 1511 1504 1498 1495 1494 1494 1494 1494 1494 1495 1497 1499 1500 1500 1501 1502 1503 1504 1506 1507 1510 1511 1513 1514 1516 1517 1519 1520 1521 1523 1524 1525 1526 1528 1529 1530 1530 1531 1532 1533 1534 1535 1535 1536 1537 1537
1500 1504 1507 1505 1501 1498 1494 1493 1493 1493 1493 1494 1495 1496 1498 1499 1500 1501 1502 1503 1504 1505 1507 1508 1510 1512 1513 1515 1516 1518 1519 1520 1522 1523 1524 1526 1527 1528 1529 1530 1531 1532 1533 1533 1534 1535 1536 1537 1537
1497 1502 1503 1502 1499 1496 1493 1492 1492 1492 1492 1494 1494 1495 1496 1497 1498 1500 1501 1502 1503 1505 1506 1507 1509 1510 1512 1514 1515 1517 1518 1519 1520 1522 1523 1524 1526 1527 1528 1529 1530 1531 1532 1533 1534 1535 1535 1536 1537
1497 1504 1504 1499 1496 1494 1492 1492 1492 1492 1492 1492 1493 1493 1494 1495 1497 1499 1500 1501 1502 1503 1505 1506 1507 1509 1511 1512 1514 1515 1516 1518 1519 1520 1522 1523 1524 1525 1527 1528 1529 1530 1531 1532 1533 1534 1535 1535 1536
1495 1502 1497 1494 1493 1492 1492 1491 1491 1491 1491 1491 1491 1492 1493 1494 1495 1497 1498 1499 1500 1502 1503 1505 1506 1507 1509 1511 1512 1513 1515 1516 1517 1518 1520 1521 1522 1524 1525 1526 1528 1529 1530 1531 1532 1533 1534 1535 1535
1493 1495 1492 1492 1491 1491 1491 1491 1491 1490 1491 1490 1490 1490 1492 1493 1494 1495 1496 1497 1498 1500 1502 1503 1504 1505 1507 1508 1509 1511 1512 1514 1515 1516 1518 1519 1520 1522 1523 1524 1526 1527 1528 1529 1531 1531 1532 1534 1534
1492 1491 1491 1490 1490 1490 1490 1490 1490 1489 1488 1489 1489 1489 1490 1490 1492 1493 1494 1495 1496 1497 1499 1500 1502 1503 1504 1506 1507 1509 1510 1511 1512 1514 1515 1517 1518 1519 1521 1522 1524 1525 1526 1527 1529 1530 1531 1532 1533
1491 1490 1490 1490 1489 1489 1489 1489 1488 1486 1487 1487 1487 1488 1488 1489 1490 1491 1492 1493 1494 1495 1496 1498 1499 1501 1502 1503 1504 1506 1507 1508 1510 1511 1513 1514 1515 1517 1518 1520 1521 1523 1524 1525 1526 1528 1529 1530 1531
1489 1489 1489 1488 1488 1488 1488 1487 1487 1483 1484 1485 1485 1485 1486 1487 1488 1489 1490 1490 1491 1492 1494 1495 1496 1497 1499 1500 1501 1502 1504 1506 1507 1508 1510 1512 1513 1514 1516 1517 1519 1520 1521 1523 1524 1525 1526 1528 1529
1489 1490 1489 1487 1486 1486 1487 1486 1483 1481 1482 1482 1482 1482 1483 1484 1485 1486 1486 1487 1488 1489 1491 1492 1493 1494 1496 1497 1498 1499 1501 1502 1504 1505 1507 1509 1510 1512 1513 1514 1516 1517 1519 1520 1522 1523 1524 1525 1526
1490 1492 1493 1486 1485 1486 1490 1487 1479 1479 1480 1479 1479 1480 1480 1481 1481 1483 1484 1485 1486 1486 1487 1488 1490 1491 1492 1493 1494 1496 1497 1499 1500 1502 1504 1505 1507 1508 1510 1511 1513 1515 1516 1518 1519 1520 1521 1522 1523
1495 1497 1493 1488 1485 1485 1487 1484 1477 1478 1478 1477 1477 1477 1477 1478 1478 1480 1481 1481 1482 1483 1484 1485 1486 1487 1488 1490 1491 1492 1493 1495 1496 1498 1500 1502 1503 1505 1507 1508 1510 1512 1513 1515 1516 1517 1518 1519 1520
1495 1496 1492 1489 1485 1485 1485 1481 1476 1475 1476 1475 1474 1474 1474 1474 1475 1476 1477 1478 1479 1480 1481 1482 1483 1484 1485 1486 1487 1488 1490 1491 1493 1494 1496 1498 1499 1501 1503 1505 1506 1508 1509 1511 1512 1514 1515 1516 1518
1490 1491 1491 1488 1484 1485 1483 1479 1474 1472 1472 1472 1471 1470 1470 1471 1472 1473 1473 1474 1475 1476 1477 1478 1479 1480 1481 1482 1482 1483 1485 1486 1487 1490 1492 1494 1495 1497 1499 1500 1502 1504 1505 1507 1509 1510 1511 1512 1514
1490 1491 1491 1487 1484 1484 1482 1478 1472 1469 1468 1467 1467 1467 1467 1468 1469 1469 1470 1471 1471 1472 1473 1474 1475 1475 1476 1478 1479 1479 1481 1482 1484 1485 1487 1489 1491 1493 1494 1496 1498 1500 1501 1503 1504 1506 1507 1508 1510
1489 1490 1489 1488 1486 1484 1484 1478 1471 1466 1465 1464 1464 1464 1464 1465 1466 1466 1467 1467 1468 1468 1469 1470 1471 1471 1472 1474 1475 1476 1477 1477 1479 1481 1482 1484 1486 1488 1489 1491 1493 1495 1497 1498 1499 1501 1503 1504 1506
1488 1485 1485 1486 1490 1492 1489 1487 1471 1466 1465 1463 1462 1462 1462 1463 1463 1464 1464 1464 1465 1465 1465 1466 1467 1467 1468 1469 1469 1470 1471 1472 1473 1475 1477 1479 1480 1482 1484 1486 1488 1490 1492 1493 1495 1496 1498 1499 1501
1485 1483 1484 1485 1489 1494 1490 1492 1475 1468 1465 1463 1462 1461 1461 1461 1461 1461 1461 1462 1462 1462 1462 1462 1463 1463 1464 1464 1465 1466 1466 1468 1469 1471 1472 1473 1475 1477 1479 1481 1483 1485 1487 1488 1490 1491 1493 1494 1496
1482 1484 1487 1490 1494 1495 1488 1490 1477 1470 1464 1461 1460 1460 1459 1459 1459 1459 1459 1459 1458 1458 1459 1458 1458 1458 1459 1460 1460 1461 1462 1463 1464 1465 1467 1468 1469 1471 1473 1475 1477 1479 1481 1483 1485 1486 1488 1489 1491
1484 1491 1499 1498 1501 1493 1483 1483 1474 1464 1461 1460 1459 1458 1457 1457 1456 1456 1455 1455 1454 1454 1454 1454 1454 1454 1454 1455 1455 1456 1457 1458 1459 1460 1462 1463 1464 1465 1466 1469 1471 1474 1476 1478 1480 1481 1482 1484 1486
1485 1488 1497 1500 1501 1492 1483 1479 1468 1461 1459 1458 1457 1457 1456 1455 1455 1454 1453 1452 1451 1451 1451 1451 1450 1450 1450 1450 1451 1452 1453 1454 1455 1456 1457 1458 1459 1460 1462 1464 1466 1468 1470 1472 1474 1475 1477 1479 1480
1484 1488 1487 1495 1496 1495 1485 1476 1465 1459 1458 1457 1456 1455 1455 1454 1453 1452 1451 1449 1449 1448 1447 1446 1446 1446 1445 1446 1446 1447 1448 1449 1450 1451 1452 1453 1454 1455 1457 1459 1461 1463 1464 1466 1468 1469 1471 1473 1474
1481 1484 1491 1494 1495 1490 1483 1477 1467 1460 1458 1457 1456 1455 1454 1453 1451 1450 1448 1447 1446 1445 1444 1443 1442 1442 1441 1442 1442 1443 1443 1444 1445 1446 1447 1448 1449 1450 1452 1454 1455 1457 1458 1460 1462 1463 1465 1466 1468
1483 1485 1487 1492 1493 1492 1487 1473 1458 1457 1457 1456 1455 1454 1453 1451 1449 1448 1446 1444 1443 1442 1440 1439 1438 1438 1437 1437 1438 1438 1438 1439 1440 1441 1442 1443 1444 1445 1447 1449 1450 1451 1452 1454 1456 1457 1458 1460 1462
1479 1481 1485 1489 1491 1491 1490 1475 1455 1455 1454 1454 1454 1453 1451 1449 1447 1446 1444 1441 1439 1438 1436 1435 1434 1434 1434 1434 1434 1434 1435 1435 1436 1436 1437 1438 1439 1441 1442 1443 1444 1445 1447 1448 1450 1451 1453 1454 1456